Change the Weather History Date:

Monday, May 14, 2012

  Actual Average Record
Temperature  
Mean Temperature 72 °F 67 °F  
Max Temperature 89 °F 83 °F 98 °F (1937)
Min Temperature 55 °F 52 °F 38 °F (1968)
Degree Days  
Heating Degree Days 0 2  
Month to date heating degree days 3 42  
Since 1 July heating degree days 2801 2892  
Cooling Degree Days 7 4  
Month to date cooling degree days 67 42  
Year to date cooling degree days 122 65  
Growing Degree Days 22 (Base 50)    
Moisture  
Dew Point 22 °F    
Average Humidity 18    
Maximum Humidity 30    
Minimum Humidity 6    
Precipitation  
Precipitation 0.00 in 0.01 in 0.27 in (1939)
Month to date precipitation 0.00 0.16  
Year to date precipitation 1.79 5.14  
Since 1 July precipitation 3.72 8.12  
Snow  
Snow 0.00 in - 0.00 in (1973)
Month to date snowfall 0.0  
Since 1 July snowfall 0.0  
Snow Depth 0.00 in    
Sea Level Pressure  
Sea Level Pressure 29.92 in    
Wind  
Wind Speed 12 mph (WSW)    
Max Wind Speed 30 mph    
Max Gust Speed 38 mph    
Visibility 10 miles    
Events      
T = Trace of Precipitation, MM = Missing Value Source: NWS Daily Summary

Daily Weather History Graph

Daily Weather History Graph

Search for Another Location

Airport or City:

Trip Planner

Search our weather history database for the weather conditions in past years. The results will help you decide how hot, cold, wet, or windy it might be!

Date:

Astronomy

May. 14, 2012 Rise Set
Actual Time 5:49 AM PDT 7:47 PM PDT
Civil Twilight 5:22 AM PDT 8:15 PM PDT
Nautical Twilight 4:48 AM PDT 8:49 PM PDT
Astronomical Twilight 4:12 AM PDT 9:26 PM PDT
Moon 2:12 AM PDT (5/14) 2:25 PM PDT (5/14)
Length of Visible Light 14h 53m
Length of Day
13h 58m
Waning Crescent, 31% of the Moon is Illuminated
May 14
Waning Crescent
May 20
New
May 28
First Quarter
Jun 4
Full
Jun 11
Last Quarter

Hourly Weather History & Observations

Time (PDT) Temp. Dew Point Humidity Pressure Visibility Wind Dir Wind Speed Gust Speed Precip Events Conditions
12:53 AM 66.9 °F 26.1 °F 21% 29.95 in 10.0 mi West 6.9 mph - N/A   Clear
1:53 AM 70.0 °F 9.0 °F 9% 29.94 in 10.0 mi NW 5.8 mph - N/A   Clear
2:53 AM 72.0 °F -0.0 °F 6% 29.94 in 10.0 mi SW 5.8 mph - N/A   Clear
3:53 AM 63.0 °F 17.1 °F 17% 29.94 in 10.0 mi SW 8.1 mph - N/A   Clear
4:53 AM 62.1 °F 21.9 °F 21% 29.95 in 10.0 mi East 5.8 mph - N/A   Clear
5:53 AM 55.0 °F 25.0 °F 31% 29.97 in 10.0 mi SSE 5.8 mph - N/A   Clear
6:53 AM 59.0 °F 27.0 °F 29% 29.98 in 10.0 mi NNW 3.5 mph - N/A   Clear
7:53 AM 64.0 °F 32.0 °F 30% 29.99 in 10.0 mi North 4.6 mph - N/A   Clear
8:53 AM 69.1 °F 32.0 °F 25% 29.99 in 10.0 mi Variable 3.5 mph - N/A   Clear
9:53 AM 73.9 °F 25.0 °F 16% 29.97 in 10.0 mi Calm Calm - N/A   Clear
10:53 AM 84.9 °F 12.0 °F 7% 29.94 in 10.0 mi SW 12.7 mph - N/A   Clear
11:53 AM 86.0 °F 17.6 °F 8% 30.00 in 10.0 mi SSW 15.0 mph 20.7 mph N/A   Clear
12:53 PM 88.0 °F 18.0 °F 8% 29.90 in 10.0 mi SW 18.4 mph 23.0 mph N/A   Clear
1:53 PM 88.0 °F 19.0 °F 8% 29.88 in 10.0 mi West 19.6 mph 24.2 mph N/A   Clear
2:53 PM 88.0 °F 19.0 °F 8% 29.87 in 10.0 mi WSW 26.5 mph 33.4 mph N/A   Clear
3:53 PM 87.1 °F 27.0 °F 11% 29.85 in 10.0 mi SW 25.3 mph 34.5 mph N/A   Clear
4:53 PM 84.9 °F 19.9 °F 9% 29.86 in 10.0 mi SSW 27.6 mph 34.5 mph N/A   Clear
5:53 PM 82.0 °F 27.0 °F 13% 29.87 in 10.0 mi SW 20.7 mph 32.2 mph N/A   Clear
6:53 PM 77.0 °F 30.0 °F 18% 29.86 in 10.0 mi SW 23.0 mph - N/A   Clear
7:53 PM 73.0 °F 23.0 °F 15% 29.86 in 10.0 mi SW 20.7 mph 26.5 mph N/A   Clear
8:53 PM 71.1 °F 23.0 °F 16% 29.89 in 10.0 mi Variable 4.6 mph - N/A   Clear
9:53 PM 69.1 °F 23.0 °F 18% 29.90 in 10.0 mi WNW 4.6 mph - N/A   Clear
10:53 PM 64.9 °F 28.9 °F 26% 29.90 in 10.0 mi West 9.2 mph - N/A   Clear
11:53 PM 64.9 °F 28.9 °F 26% 29.90 in 10.0 mi WNW 9.2 mph - N/A   Clear